When you browse on this site, cookies collect data to enhance your experience and personalize the content and advertising you see.
Visit our Privacy Policy to learn more. By continuing to use the site, you agree to this use of cookies and data.
  • In Hungary
  • List of Countries
  • For 7 days
  • Water Temperature
  • Satellite Maps
  • Weather Map
  • News
  • Weather Widgets
  • user-avatar
    Login

    Hourly Weather Chintamani

    Today, 23 January, Wednesday

    Time Temperature Precipitation Wind Pressure Humidity
    00:00 +18°C° 0 mm 3 mps 687 mmHg 83%
    01:00 +17°C° 0 mm 2 mps 687 mmHg 89%
    02:00 +17°C° 0 mm 2 mps 687 mmHg 96%
    03:00 +16°C° 0 mm 2 mps 686 mmHg 96%
    04:00 +16°C° 0 mm 2 mps 686 mmHg 97%
    05:00 +17°C° 0 mm 2 mps 687 mmHg 97%
    06:00 +17°C° 0 mm 2 mps 687 mmHg 93%
    07:00 +18°C° 0 mm 2 mps 687 mmHg 88%
    08:00 +19°C° 0 mm 2 mps 688 mmHg 83%
    09:00 +21°C° 0 mm 2 mps 688 mmHg 69%
    10:00 +25°C° 0 mm 1 mps 688 mmHg 55%
    11:00 +27°C° 0 mm 1 mps 689 mmHg 42%
    12:00 +28°C° 0 mm 1 mps 688 mmHg 37%
    13:00 +29°C° 0 mm 1 mps 688 mmHg 33%
    14:00 +30°C° 0 mm 1 mps 687 mmHg 29%
    15:00 +30°C° 0 mm 1 mps 687 mmHg 29%
    16:00 +30°C° 0 mm 1 mps 687 mmHg 29%
    17:00 +29°C° 0 mm 1 mps 687 mmHg 29%
    18:00 +28°C° 0 mm 2 mps 687 mmHg 34%
    19:00 +26°C° 0 mm 2 mps 687 mmHg 39%
    20:00 +24°C° 0 mm 3 mps 687 mmHg 45%
    21:00 +22°C° 0 mm 4 mps 687 mmHg 58%
    22:00 +21°C° 0 mm 4 mps 687 mmHg 72%
    23:00 +20°C° 0 mm 5 mps 688 mmHg 86%

    Tomorrow, 24 January, Thursday

    Time Temperature Precipitation Wind Pressure Humidity
    00:00 +19°C° 0 mm 5 mps 687 mmHg 88%
    01:00 +19°C° 0 mm 4 mps 687 mmHg 90%
    02:00 +18°C° 0 mm 3 mps 687 mmHg 92%
    03:00 +18°C° 0 mm 3 mps 687 mmHg 93%
    04:00 +18°C° 0 mm 3 mps 687 mmHg 93%
    05:00 +17°C° 0 mm 2 mps 687 mmHg 94%
    06:00 +19°C° 0 mm 2 mps 687 mmHg 85%
    07:00 +20°C° 0 mm 2 mps 688 mmHg 76%
    08:00 +21°C° 0 mm 3 mps 689 mmHg 67%
    09:00 +24°C° 0 mm 3 mps 689 mmHg 58%
    10:00 +26°C° 0 mm 3 mps 689 mmHg 49%
    11:00 +28°C° 0 mm 2 mps 689 mmHg 40%
    12:00 +29°C° 0 mm 2 mps 688 mmHg 37%
    13:00 +30°C° 0 mm 2 mps 688 mmHg 33%
    14:00 +31°C° 0 mm 2 mps 687 mmHg 30%
    15:00 +30°C° 0 mm 2 mps 687 mmHg 31%
    16:00 +30°C° 0 mm 3 mps 687 mmHg 31%
    17:00 +30°C° 0 mm 3 mps 686 mmHg 32%
    18:00 +28°C° 0 mm 4 mps 687 mmHg 37%
    19:00 +27°C° 0 mm 5 mps 687 mmHg 43%
    20:00 +24°C° 0 mm 7 mps 687 mmHg 48%
    21:00 +23°C° 0 mm 6 mps 687 mmHg 58%
    22:00 +21°C° 0 mm 6 mps 687 mmHg 67%
    23:00 +20°C° 0 mm 5 mps 687 mmHg 76%

    Day after tomorrow, 25 January, Friday

    Time Temperature Precipitation Wind Pressure Humidity
    00:00 +19°C° 0 mm 5 mps 687 mmHg 79%
    01:00 +19°C° 0 mm 5 mps 686 mmHg 81%
    02:00 +18°C° 0 mm 4 mps 686 mmHg 84%
    03:00 +18°C° 0 mm 3 mps 686 mmHg 87%
    04:00 +18°C° 0 mm 3 mps 686 mmHg 89%
    05:00 +17°C° 0 mm 2 mps 686 mmHg 91%
    06:00 +18°C° 0 mm 3 mps 687 mmHg 84%
    07:00 +19°C° 0 mm 3 mps 687 mmHg 76%
    08:00 +20°C° 0 mm 3 mps 688 mmHg 68%
    09:00 +24°C° 0 mm 3 mps 688 mmHg 58%
    10:00 +26°C° 0 mm 3 mps 689 mmHg 48%
    11:00 +28°C° 0 mm 4 mps 689 mmHg 38%
    12:00 +29°C° 0 mm 3 mps 688 mmHg 35%
    13:00 +30°C° 0 mm 3 mps 687 mmHg 33%
    14:00 +30°C° 0 mm 3 mps 687 mmHg 31%
    15:00 +30°C° 0 mm 3 mps 687 mmHg 32%
    16:00 +30°C° 0 mm 3 mps 687 mmHg 33%
    17:00 +29°C° 0 mm 3 mps 687 mmHg 33%
    18:00 +28°C° 0 mm 4 mps 687 mmHg 40%
    19:00 +26°C° 0 mm 5 mps 687 mmHg 46%
    20:00 +23°C° 0 mm 6 mps 687 mmHg 52%
    21:00 +22°C° 0 mm 6 mps 687 mmHg 63%
    22:00 +21°C° 0 mm 6 mps 687 mmHg 74%
    23:00 +20°C° 0 mm 5 mps 687 mmHg 84%

    26 January, Saturday

    Time Temperature Precipitation Wind Pressure Humidity
    00:00 +20°C° 0 mm 5 mps 687 mmHg 87%
    01:00 +19°C° 0 mm 4 mps 686 mmHg 89%
    02:00 +19°C° 0 mm 4 mps 686 mmHg 91%
    03:00 +18°C° 0 mm 3 mps 686 mmHg 92%
    04:00 +18°C° 0 mm 3 mps 686 mmHg 93%
    05:00 +18°C° 0 mm 3 mps 686 mmHg 94%
    06:00 +19°C° 0 mm 3 mps 687 mmHg 87%
    07:00 +20°C° 0 mm 3 mps 687 mmHg 79%
    08:00 +21°C° 0 mm 3 mps 688 mmHg 72%
    09:00 +24°C° 0 mm 3 mps 689 mmHg 62%
    10:00 +26°C° 0 mm 3 mps 689 mmHg 51%
    11:00 +28°C° 0 mm 3 mps 689 mmHg 41%
    12:00 +29°C° 0 mm 3 mps 688 mmHg 38%
    13:00 +30°C° 0 mm 3 mps 688 mmHg 36%
    14:00 +30°C° 0 mm 3 mps 687 mmHg 33%
    15:00 +30°C° 0 mm 3 mps 687 mmHg 35%
    16:00 +29°C° 0 mm 3 mps 687 mmHg 36%
    17:00 +29°C° 0 mm 4 mps 687 mmHg 38%
    18:00 +27°C° 0.1 mm 5 mps 687 mmHg 51%
    19:00 +24°C° 0.1 mm 6 mps 687 mmHg 64%
    20:00 +22°C° 0.1 mm 7 mps 688 mmHg 77%
    21:00 +21°C° 0.1 mm 6 mps 688 mmHg 80%
    22:00 +21°C° 0.1 mm 6 mps 688 mmHg 83%
    23:00 +20°C° 0.1 mm 5 mps 688 mmHg 87%

    27 January, Sunday

    Time Temperature Precipitation Wind Pressure Humidity
    00:00 +20°C° 0 mm 5 mps 688 mmHg 87%
    01:00 +20°C° 0 mm 5 mps 687 mmHg 87%
    02:00 +20°C° 0 mm 4 mps 687 mmHg 87%
    03:00 +20°C° 0 mm 4 mps 687 mmHg 88%
    04:00 +19°C° 0 mm 3 mps 687 mmHg 90%
    05:00 +19°C° 0 mm 3 mps 687 mmHg 92%
    06:00 +20°C° 0.1 mm 3 mps 688 mmHg 87%
    07:00 +20°C° 0.1 mm 3 mps 688 mmHg 83%
    08:00 +21°C° 0.1 mm 3 mps 689 mmHg 79%
    09:00 +24°C° 0.1 mm 3 mps 689 mmHg 70%
    10:00 +25°C° 0.1 mm 3 mps 689 mmHg 61%
    11:00 +27°C° 0.1 mm 3 mps 690 mmHg 53%
    12:00 +27°C° 0.2 mm 3 mps 689 mmHg 51%
    13:00 +28°C° 0.2 mm 3 mps 688 mmHg 49%
    14:00 +28°C° 0.2 mm 2 mps 687 mmHg 47%
    15:00 +28°C° 0.2 mm 3 mps 687 mmHg 49%
    16:00 +27°C° 0.2 mm 3 mps 687 mmHg 52%
    17:00 +26°C° 0.2 mm 3 mps 687 mmHg 54%
    18:00 +25°C° 0.4 mm 3 mps 687 mmHg 61%
    19:00 +23°C° 0.4 mm 4 mps 688 mmHg 68%
    20:00 +22°C° 0.4 mm 4 mps 688 mmHg 75%
    21:00 +21°C° 0.1 mm 4 mps 688 mmHg 80%
    22:00 +20°C° 0.1 mm 4 mps 688 mmHg 84%
    23:00 +20°C° 0.1 mm 4 mps 688 mmHg 89%

    28 January, Monday

    Time Temperature Precipitation Wind Pressure Humidity
    00:00 +19°C° 0 mm 4 mps 688 mmHg 91%
    01:00 +19°C° 0 mm 3 mps 687 mmHg 92%
    02:00 +18°C° 0 mm 3 mps 687 mmHg 94%
    03:00 +18°C° 0 mm 3 mps 687 mmHg 93%
    04:00 +18°C° 0 mm 2 mps 687 mmHg 92%
    05:00 +18°C° 0 mm 2 mps 687 mmHg 90%
    06:00 +18°C° 0 mm 2 mps 688 mmHg 87%
    07:00 +18°C° 0 mm 2 mps 689 mmHg 84%
    08:00 +19°C° 0 mm 2 mps 689 mmHg 81%
    09:00 +21°C° 0 mm 2 mps 690 mmHg 68%
    10:00 +24°C° 0 mm 3 mps 690 mmHg 55%
    11:00 +26°C° 0 mm 3 mps 690 mmHg 43%
    12:00 +27°C° 0 mm 4 mps 690 mmHg 41%
    13:00 +27°C° 0 mm 4 mps 689 mmHg 39%
    14:00 +28°C° 0 mm 4 mps 688 mmHg 37%
    15:00 +27°C° 0 mm 4 mps 688 mmHg 41%
    16:00 +26°C° 0 mm 5 mps 688 mmHg 46%
    17:00 +26°C° 0 mm 5 mps 687 mmHg 50%
    18:00 +23°C° 0 mm 4 mps 688 mmHg 56%
    19:00 +22°C° 0 mm 4 mps 688 mmHg 62%
    20:00 +21°C° 0 mm 3 mps 688 mmHg 69%
    21:00 +20°C° 0 mm 3 mps 688 mmHg 71%
    22:00 +20°C° 0 mm 3 mps 688 mmHg 74%
    23:00 +19°C° 0 mm 3 mps 688 mmHg 76%
    Show more